Weather History for Evanston, WY

Change the Weather History Date:

Tuesday, September 3, 2013

  Actual Average Record
Temperature  
Mean Temperature 71 °F 60 °F  
Max Temperature 85 °F 74 °F 85 °F (2007)
Min Temperature 56 °F 46 °F 36 °F (1999)
Degree Days  
Heating Degree Days 0 6  
Month to date heating degree days 0 16  
Since 1 July heating degree days 14 119  
Cooling Degree Days 6 0  
Month to date cooling degree days 11 0  
Year to date cooling degree days 333 157  
Growing Degree Days 20 (Base 50)    
Moisture  
Dew Point 49 °F    
Average Humidity 50    
Maximum Humidity 77    
Minimum Humidity 22    
Precipitation  
Precipitation 0.14 in 0.04 in 0.21 in (1999)
Month to date precipitation 0.14 0.14  
Year to date precipitation 2.72 8.17  
Sea Level Pressure  
Sea Level Pressure 30.08 in    
Wind  
Wind Speed 5 mph (SW)    
Max Wind Speed 12 mph    
Max Gust Speed 28 mph    
Visibility 9 miles    
Events Rain , Thunderstorm    
T = Trace of Precipitation, MM = Missing Value Source: NWS Daily Summary

Daily Weather History Graph

Daily Weather History Graph

Search for Another Location

Airport:

Trip Planner

Search our weather history database for the weather conditions in past years. The results will help you decide how hot, cold, wet, or windy it might be!

Date:

Astronomy

Sep. 03, 2013 Rise Set
Actual Time 6:52 AM MDT 7:53 PM MDT
Civil Twilight 6:24 AM MDT 8:21 PM MDT
Nautical Twilight 5:50 AM MDT 8:54 PM MDT
Astronomical Twilight 5:15 AM MDT 9:29 PM MDT
Moon 5:09 AM MDT (9/3) 6:42 PM MDT (9/3)
Length of Visible Light 13h 56m
Length of Day
13h 00m
Waning Crescent, 3% of the Moon is Illuminated
Sep 3
Waning Crescent
Sep 5
New
Sep 12
First Quarter
Sep 19
Full
Sep 26
Last Quarter

Hourly Weather History & Observations

Time (MDT) Temp. Dew Point Humidity Pressure Visibility Wind Dir Wind Speed Gust Speed Precip Events Conditions
12:53 AM 62.1 °F 50.0 °F 65% 30.00 in 10.0 mi SW 4.6 mph - N/A   Clear
1:53 AM 62.1 °F 48.9 °F 62% 30.03 in 10.0 mi WNW 6.9 mph - N/A   Overcast
2:53 AM 61.0 °F 48.0 °F 62% 30.04 in 10.0 mi NNW 6.9 mph - N/A   Overcast
3:53 AM 59.0 °F 48.9 °F 69% 30.03 in 10.0 mi North 10.4 mph - N/A   Overcast
4:53 AM 55.9 °F 48.0 °F 75% 30.05 in 10.0 mi Calm Calm - N/A   Mostly Cloudy
5:53 AM 59.0 °F 48.9 °F 69% 30.04 in 10.0 mi Calm Calm - N/A   Scattered Clouds
6:53 AM 59.0 °F 48.9 °F 69% 30.06 in 10.0 mi Calm Calm - N/A   Clear
7:53 AM 55.9 °F 48.9 °F 77% 30.08 in 10.0 mi SE 3.5 mph - N/A   Clear
8:53 AM 63.0 °F 50.0 °F 63% 30.07 in 10.0 mi Variable 4.6 mph - N/A   Clear
9:53 AM 69.1 °F 50.0 °F 51% 30.05 in 10.0 mi ESE 8.1 mph - N/A   Clear
10:53 AM 73.9 °F 46.9 °F 38% 30.05 in 10.0 mi ESE 5.8 mph - N/A   Clear
11:53 AM 75.9 °F 46.0 °F 35% 30.03 in 10.0 mi NW 4.6 mph - N/A   Clear
12:53 PM 80.1 °F 42.1 °F 26% 30.01 in 10.0 mi WSW 12.7 mph 19.6 mph N/A   Mostly Cloudy
1:53 PM 84.0 °F 39.0 °F 20% 29.97 in 10.0 mi SW 19.6 mph 24.2 mph N/A   Clear
2:53 PM 80.1 °F 39.0 °F 23% 29.97 in 10.0 mi Variable 6.9 mph - N/A   Mostly Cloudy
3:53 PM 80.1 °F 41.0 °F 25% 29.95 in 10.0 mi SSW 9.2 mph 17.3 mph N/A   Mostly Cloudy
4:53 PM 82.0 °F 43.0 °F 25% 29.96 in 10.0 mi Variable 4.6 mph - N/A   Overcast
5:07 PM 66.2 °F 53.6 °F 64% 30.28 in 7.0 mi South 29.9 mph 52.9 mph 0.00 in Rain Light Rain
5:11 PM 62.6 °F 57.2 °F 82% 30.29 in 4.0 mi South 23.0 mph 41.4 mph 0.03 in Rain , Thunderstorm Heavy Thunderstorms and Rain
5:51 PM 60.8 °F - N/A% 30.32 in 2.0 mi Variable 4.6 mph - 0.13 in Rain , Thunderstorm Thunderstorms and Rain
5:53 PM 61.0 °F - N/A% 30.08 in 2.0 mi WNW 9.2 mph - 0.14 in Rain , Thunderstorm Thunderstorms and Rain
6:03 PM 60.8 °F - N/A% 30.31 in 8.0 mi WNW 8.1 mph - 0.00 in Rain , Thunderstorm Light Thunderstorms and Rain
6:30 PM 62.6 °F - N/A% 30.30 in 10.0 mi West 8.1 mph - 0.00 in   Mostly Cloudy
6:53 PM 63.0 °F - N/A% 30.05 in 10.0 mi West 6.9 mph - 0.00 in   Partly Cloudy
7:53 PM 61.0 °F 61.0 °F 100% 30.07 in 10.0 mi Calm Calm - N/A   Clear
8:53 PM 62.1 °F 59.0 °F 90% 30.06 in 10.0 mi Calm Calm - N/A   Clear
9:53 PM 61.0 °F 57.0 °F 87% 30.06 in 10.0 mi South 3.5 mph - N/A   Scattered Clouds
10:53 PM 60.1 °F 55.9 °F 86% 30.06 in 10.0 mi Calm Calm - N/A   Clear
11:53 PM 57.9 °F 55.0 °F 90% 30.07 in 10.0 mi ESE 4.6 mph - N/A   Clear